DLH3VT EDDH-LSZH

Flight info

Callsign DLH3VT
Flight time 1h 15m
Altitude 33000
Route IDEKO7G IDEKO N850 ISPOF/N0450F350 N850 ROBEG DCT SWALM/N0451F340 DCT OMOGI/N0453F350 T721 LAMGO/N0414F230 T721 RILAX
Aircraft A319/M-SDE3FGHIRWY/LB1

Departure

Time 2026-05-05 19:08
Airport Hamburg Helmut Schmidt Airport (EDDH)

Arrival

Time 2026-05-05 20:24
Airport Zürich Airport (LSZH)
Time Latitude Longitude Altitude Speed Heading
2026-05-05 18:43 53.62845 10.00221 76 ft 0 kts 62°
2026-05-05 19:01 53.62842 10.00208 48 ft 3 kts 62°
2026-05-05 19:01 53.62833 10.00180 46 ft 3 kts 62°
2026-05-05 19:01 53.62824 10.00152 44 ft 3 kts 62°
2026-05-05 19:01 53.62819 10.00124 45 ft 3 kts 88°
2026-05-05 19:02 53.62824 10.00100 44 ft 1 kts 154°
2026-05-05 19:02 53.62888 10.00040 50 ft 0 kts 153°
2026-05-05 19:02 53.62987 9.99965 48 ft 0 kts 152°
2026-05-05 19:05 53.62922 9.99982 48 ft 10 kts 214°
2026-05-05 19:05 53.62899 9.99923 48 ft 0 kts 243°
2026-05-05 19:06 53.62898 9.99921 48 ft 1 kts 243°
2026-05-05 19:06 53.62886 9.99881 46 ft 9 kts 243°
2026-05-05 19:06 53.62858 9.99766 45 ft 10 kts 276°
2026-05-05 19:07 53.62887 9.99728 45 ft 0 kts 330°
2026-05-05 19:07 53.62982 9.99642 43 ft 51 kts 332°
2026-05-05 19:08 53.63517 9.99187 45 ft 121 kts 333°
2026-05-05 19:08 53.64428 9.98400 153 ft 163 kts 333°
2026-05-05 19:08 53.65415 9.97548 804 ft 160 kts 336°
2026-05-05 19:08 53.66435 9.96676 1370 ft 171 kts 338°
2026-05-05 19:09 53.67578 9.95724 1715 ft 196 kts 338°
2026-05-05 19:09 53.68907 9.94623 2026 ft 228 kts 337°
2026-05-05 19:09 53.70319 9.93396 3053 ft 222 kts 333°
2026-05-05 19:09 53.71398 9.91529 4022 ft 230 kts 297°
2026-05-05 19:10 53.71667 9.88773 4547 ft 256 kts 265°
2026-05-05 19:10 53.71252 9.85723 4938 ft 274 kts 252°
2026-05-05 19:10 53.70586 9.82706 5000 ft 275 kts 248°
2026-05-05 19:10 53.69855 9.79725 5007 ft 275 kts 248°
2026-05-05 19:11 53.69116 9.76654 5033 ft 293 kts 249°
2026-05-05 19:11 53.68381 9.73401 5798 ft 301 kts 250°
2026-05-05 19:11 53.67677 9.70109 7004 ft 296 kts 251°
2026-05-05 19:11 53.67102 9.66887 8402 ft 280 kts 261°
2026-05-05 19:12 53.67077 9.63600 9244 ft 280 kts 273°
2026-05-05 19:12 53.67227 9.60335 9608 ft 278 kts 273°
2026-05-05 19:12 53.67053 9.57106 9824 ft 277 kts 253°
2026-05-05 19:12 53.66121 9.54204 9895 ft 299 kts 230°
2026-05-05 19:13 53.64348 9.52051 9906 ft 335 kts 203°
2026-05-05 19:13 53.61946 9.51332 9902 ft 368 kts 185°
2026-05-05 19:13 53.59325 9.51200 9905 ft 384 kts 181°
2026-05-05 19:13 53.56618 9.51245 10449 ft 391 kts 180°
2026-05-05 19:14 53.53889 9.51353 11142 ft 394 kts 179°
2026-05-05 19:14 53.51139 9.51426 11798 ft 397 kts 183°
2026-05-05 19:14 53.48429 9.50548 12424 ft 399 kts 201°
2026-05-05 19:14 53.45856 9.48749 13076 ft 402 kts 204°
2026-05-05 19:15 53.43270 9.46873 13697 ft 406 kts 204°
2026-05-05 19:15 53.40701 9.45005 14239 ft 410 kts 204°
2026-05-05 19:15 53.38078 9.43098 14780 ft 412 kts 204°
2026-05-05 19:15 53.35431 9.41164 15287 ft 415 kts 204°
2026-05-05 19:16 53.32780 9.39202 15783 ft 418 kts 204°
2026-05-05 19:16 53.30112 9.37229 16305 ft 420 kts 204°
2026-05-05 19:16 53.27432 9.35245 16795 ft 423 kts 204°
2026-05-05 19:16 53.24727 9.33242 17272 ft 426 kts 204°
2026-05-05 19:17 53.22008 9.31227 17733 ft 429 kts 204°
2026-05-05 19:17 53.19273 9.29202 18198 ft 431 kts 204°
2026-05-05 19:17 53.16524 9.27170 18589 ft 434 kts 204°
2026-05-05 19:17 53.13751 9.25128 18986 ft 436 kts 204°
2026-05-05 19:18 53.10967 9.23086 19388 ft 438 kts 204°
2026-05-05 19:18 53.08177 9.21050 19780 ft 439 kts 204°
2026-05-05 19:18 53.05367 9.19011 20167 ft 440 kts 204°
2026-05-05 19:18 53.02552 9.16978 20547 ft 442 kts 204°
2026-05-05 19:19 52.99727 9.14946 20905 ft 443 kts 204°
2026-05-05 19:19 52.96920 9.12935 21263 ft 445 kts 204°
2026-05-05 19:19 52.94070 9.10901 21616 ft 446 kts 204°
2026-05-05 19:19 52.91215 9.08871 21964 ft 447 kts 204°
2026-05-05 19:20 52.89280 9.07505 22190 ft 448 kts 203°
2026-05-05 19:20 52.85254 9.05957 22631 ft 453 kts 184°
2026-05-05 19:20 52.82085 9.06432 22951 ft 459 kts 169°
2026-05-05 19:20 52.79109 9.08350 23255 ft 467 kts 153°
2026-05-05 19:21 52.76523 9.11643 23516 ft 475 kts 137°
2026-05-05 19:21 52.74289 9.15684 23749 ft 478 kts 135°
2026-05-05 19:21 52.72068 9.19782 23990 ft 479 kts 135°
2026-05-05 19:21 52.69846 9.23891 24225 ft 481 kts 135°
2026-05-05 19:22 52.67529 9.27853 24457 ft 479 kts 142°
2026-05-05 19:22 52.64854 9.31049 24785 ft 473 kts 153°
2026-05-05 19:22 52.61899 9.33338 25158 ft 466 kts 163°
2026-05-05 19:22 52.58783 9.34677 25549 ft 460 kts 173°
2026-05-05 19:23 52.55650 9.35074 25940 ft 456 kts 182°
2026-05-05 19:23 52.52507 9.34574 26330 ft 452 kts 191°
2026-05-05 19:23 52.49403 9.33755 26730 ft 451 kts 191°
2026-05-05 19:23 52.46315 9.32941 27142 ft 449 kts 191°
2026-05-05 19:24 52.43237 9.32135 27562 ft 448 kts 191°
2026-05-05 19:24 52.40163 9.31337 27989 ft 446 kts 191°
2026-05-05 19:24 52.37089 9.30544 28448 ft 444 kts 190°
2026-05-05 19:24 52.34053 9.29760 28922 ft 442 kts 190°
2026-05-05 19:25 52.31027 9.28970 29382 ft 440 kts 190°
2026-05-05 19:25 52.28012 9.28178 29849 ft 438 kts 190°
2026-05-05 19:25 52.25005 9.27388 30260 ft 436 kts 190°
2026-05-05 19:25 52.21991 9.26890 30669 ft 435 kts 183°
2026-05-05 19:26 52.18967 9.26771 31091 ft 433 kts 183°
2026-05-05 19:26 52.15960 9.26649 31527 ft 431 kts 183°
2026-05-05 19:26 52.12971 9.26524 31986 ft 428 kts 182°
2026-05-05 19:26 52.09996 9.26394 32446 ft 425 kts 182°
2026-05-05 19:27 52.07082 9.26263 32776 ft 424 kts 182°
2026-05-05 19:27 52.04138 9.26129 32844 ft 423 kts 182°
2026-05-05 19:27 51.98283 9.25867 32830 ft 422 kts 182°
2026-05-05 19:28 51.92413 9.25623 32830 ft 422 kts 182°
2026-05-05 19:28 51.86551 9.25373 32827 ft 420 kts 182°
2026-05-05 19:29 51.80700 9.25114 32823 ft 420 kts 182°
2026-05-05 19:29 51.74854 9.24860 32820 ft 420 kts 182°
2026-05-05 19:30 51.69011 9.24616 32812 ft 420 kts 182°
2026-05-05 19:30 51.63169 9.24362 32807 ft 420 kts 181°
2026-05-05 19:31 51.57366 9.24117 32806 ft 420 kts 181°
2026-05-05 19:31 51.51520 9.23884 32819 ft 419 kts 181°
2026-05-05 19:32 51.45707 9.23640 32832 ft 417 kts 181°
2026-05-05 19:32 51.39906 9.23385 32808 ft 416 kts 180°
2026-05-05 19:33 51.34111 9.23138 32804 ft 416 kts 180°
2026-05-05 19:33 51.28321 9.22892 32802 ft 416 kts 180°
2026-05-05 19:34 51.22528 9.22643 32800 ft 416 kts 180°
2026-05-05 19:35 51.14804 9.22326 32784 ft 418 kts 180°
2026-05-05 19:35 51.08036 9.22040 32784 ft 419 kts 180°
2026-05-05 19:36 51.03148 9.21838 32785 ft 420 kts 180°
2026-05-05 19:36 50.97307 9.21608 32795 ft 420 kts 180°
2026-05-05 19:37 50.91461 9.21371 32786 ft 421 kts 179°
2026-05-05 19:37 50.85593 9.21132 32784 ft 421 kts 179°
2026-05-05 19:38 50.79726 9.20886 32781 ft 422 kts 179°
2026-05-05 19:38 50.73889 9.20648 32785 ft 422 kts 179°
2026-05-05 19:39 50.68032 9.19788 32792 ft 424 kts 185°
2026-05-05 19:39 50.62185 9.18575 32793 ft 424 kts 185°
2026-05-05 19:40 50.56334 9.17365 32791 ft 424 kts 185°
2026-05-05 19:40 50.50484 9.16157 32800 ft 424 kts 185°
2026-05-05 19:41 50.44627 9.14948 32791 ft 425 kts 185°
2026-05-05 19:41 50.38754 9.13734 32791 ft 426 kts 185°
2026-05-05 19:42 50.32876 9.12525 32796 ft 426 kts 185°
2026-05-05 19:42 50.26992 9.11322 32801 ft 427 kts 185°
2026-05-05 19:43 50.21094 9.10128 32792 ft 428 kts 185°
2026-05-05 19:43 50.15175 9.08926 32791 ft 429 kts 185°
2026-05-05 19:44 50.09242 9.07713 32795 ft 430 kts 185°
2026-05-05 19:44 50.03300 9.06507 32799 ft 431 kts 185°
2026-05-05 19:45 49.97382 9.05316 32795 ft 432 kts 185°
2026-05-05 19:45 49.91420 9.04116 32798 ft 433 kts 185°
2026-05-05 19:46 49.85445 9.02911 32806 ft 433 kts 185°
2026-05-05 19:46 49.79468 9.01703 32809 ft 433 kts 185°
2026-05-05 19:47 49.73477 9.00495 32806 ft 434 kts 185°
2026-05-05 19:47 49.67482 8.99296 32808 ft 434 kts 185°
2026-05-05 19:48 49.61498 8.97955 32814 ft 435 kts 188°
2026-05-05 19:48 49.55535 8.96260 32813 ft 435 kts 189°
2026-05-05 19:49 49.49581 8.94522 32814 ft 435 kts 188°
2026-05-05 19:49 49.43620 8.92860 32814 ft 435 kts 188°
2026-05-05 19:50 49.37697 8.91252 32821 ft 435 kts 189°
2026-05-05 19:50 49.31736 8.89637 32824 ft 435 kts 188°
2026-05-05 19:51 49.25766 8.88019 32823 ft 435 kts 189°
2026-05-05 19:51 49.19808 8.86408 32821 ft 435 kts 188°
2026-05-05 19:52 49.13845 8.84793 32828 ft 435 kts 189°
2026-05-05 19:52 49.07892 8.83156 32834 ft 434 kts 189°
2026-05-05 19:53 49.01943 8.81537 32831 ft 434 kts 189°
2026-05-05 19:53 48.96003 8.79927 32835 ft 434 kts 190°
2026-05-05 19:54 48.90047 8.78332 32834 ft 434 kts 190°
2026-05-05 19:54 48.84109 8.76723 32832 ft 434 kts 190°
2026-05-05 19:55 48.78166 8.75109 32834 ft 433 kts 190°
2026-05-05 19:55 48.72215 8.73519 32404 ft 437 kts 191°
2026-05-05 19:55 48.69220 8.72726 32113 ft 438 kts 190°
2026-05-05 19:56 48.66249 8.71939 31855 ft 440 kts 191°
2026-05-05 19:56 48.63234 8.71138 31603 ft 441 kts 191°
2026-05-05 19:56 48.60206 8.70332 31342 ft 441 kts 191°
2026-05-05 19:56 48.57176 8.69526 31091 ft 442 kts 191°
2026-05-05 19:57 48.54143 8.68721 30836 ft 443 kts 191°
2026-05-05 19:57 48.52137 8.68189 30670 ft 443 kts 191°
2026-05-05 19:57 48.48069 8.67110 30344 ft 444 kts 191°
2026-05-05 19:57 48.45027 8.66300 30099 ft 444 kts 191°
2026-05-05 19:58 48.41983 8.65492 29848 ft 445 kts 190°
2026-05-05 19:58 48.38922 8.64684 29567 ft 445 kts 190°
2026-05-05 19:58 48.35869 8.63861 29281 ft 446 kts 191°
2026-05-05 19:58 48.32858 8.62986 29002 ft 447 kts 192°
2026-05-05 19:59 48.29814 8.62060 28726 ft 446 kts 192°
2026-05-05 19:59 48.26772 8.61113 28446 ft 446 kts 192°
2026-05-05 19:59 48.23744 8.60163 27462 ft 446 kts 192°
2026-05-05 19:59 48.20724 8.59224 26224 ft 439 kts 192°
2026-05-05 20:00 48.17758 8.58323 25069 ft 430 kts 191°
2026-05-05 20:00 48.14832 8.57451 23981 ft 428 kts 191°
2026-05-05 20:00 48.11929 8.56589 22822 ft 422 kts 191°
2026-05-05 20:00 48.09070 8.55743 21631 ft 414 kts 192°
2026-05-05 20:01 48.06259 8.54913 20784 ft 411 kts 192°
2026-05-05 20:01 48.03393 8.54066 20273 ft 426 kts 192°
2026-05-05 20:01 48.00477 8.53231 19786 ft 428 kts 190°
2026-05-05 20:01 47.97503 8.53000 19295 ft 429 kts 179°
2026-05-05 20:02 47.94550 8.53661 18807 ft 430 kts 168°
2026-05-05 20:02 47.91746 8.55201 18334 ft 431 kts 156°
2026-05-05 20:02 47.89190 8.57566 17816 ft 434 kts 145°
2026-05-05 20:02 47.86862 8.60404 17284 ft 432 kts 143°
2026-05-05 20:03 47.84545 8.63239 16895 ft 430 kts 143°
2026-05-05 20:03 47.82228 8.66055 16632 ft 429 kts 143°
2026-05-05 20:03 47.79915 8.68853 16374 ft 428 kts 144°
2026-05-05 20:03 47.77631 8.71611 16122 ft 427 kts 144°
2026-05-05 20:04 47.75344 8.74371 15866 ft 417 kts 144°
2026-05-05 20:04 47.73127 8.77050 15614 ft 404 kts 144°
2026-05-05 20:04 47.70980 8.79646 15362 ft 392 kts 144°
2026-05-05 20:04 47.68900 8.82158 15117 ft 380 kts 144°
2026-05-05 20:05 47.66882 8.84596 14856 ft 369 kts 144°
2026-05-05 20:05 47.64920 8.86962 14611 ft 358 kts 144°
2026-05-05 20:05 47.63030 8.89296 14370 ft 351 kts 140°
2026-05-05 20:05 47.61498 8.92075 14129 ft 348 kts 125°
2026-05-05 20:06 47.60371 8.95206 13933 ft 340 kts 120°
2026-05-05 20:06 47.59307 8.98265 13891 ft 327 kts 121°
2026-05-05 20:06 47.58286 9.01195 13897 ft 313 kts 121°
2026-05-05 20:06 47.57396 9.04057 13892 ft 302 kts 108°
2026-05-05 20:07 47.57008 9.07081 13900 ft 299 kts 101°
2026-05-05 20:07 47.56710 9.10143 13897 ft 297 kts 100°
2026-05-05 20:07 47.56448 9.13117 13896 ft 285 kts 100°
2026-05-05 20:07 47.56200 9.15968 13896 ft 275 kts 100°
2026-05-05 20:08 47.55957 9.18718 13895 ft 272 kts 100°
2026-05-05 20:08 47.55952 9.21518 13898 ft 274 kts 82°
2026-05-05 20:08 47.56554 9.24186 13899 ft 273 kts 60°
2026-05-05 20:08 47.57696 9.26391 13900 ft 269 kts 40°
2026-05-05 20:09 47.59235 9.27911 13900 ft 265 kts 19°
2026-05-05 20:09 47.60988 9.28605 13896 ft 259 kts
2026-05-05 20:09 47.62761 9.28454 13893 ft 253 kts 340°
2026-05-05 20:09 47.64261 9.27275 13699 ft 242 kts 312°
2026-05-05 20:10 47.65175 9.25189 13108 ft 245 kts 287°
2026-05-05 20:10 47.65762 9.22800 12709 ft 247 kts 284°
2026-05-05 20:10 47.66316 9.20381 12393 ft 247 kts 284°
2026-05-05 20:10 47.66861 9.17969 12098 ft 246 kts 284°
2026-05-05 20:11 47.67404 9.15562 11786 ft 245 kts 284°
2026-05-05 20:11 47.67942 9.13166 11506 ft 244 kts 284°
2026-05-05 20:11 47.68346 9.10747 11201 ft 239 kts 269°
2026-05-05 20:11 47.68329 9.08300 10895 ft 237 kts 264°
2026-05-05 20:12 47.68252 9.05898 10599 ft 235 kts 264°
2026-05-05 20:12 47.68170 9.03475 10299 ft 234 kts 264°
2026-05-05 20:12 47.68089 9.01063 10003 ft 234 kts 264°
2026-05-05 20:12 47.68008 8.98662 9885 ft 233 kts 264°
2026-05-05 20:13 47.67928 8.96253 9891 ft 234 kts 264°
2026-05-05 20:13 47.67846 8.93843 9894 ft 234 kts 264°
2026-05-05 20:13 47.67764 8.91425 9897 ft 234 kts 264°
2026-05-05 20:13 47.67682 8.89008 9900 ft 235 kts 264°
2026-05-05 20:14 47.67562 8.86599 9899 ft 233 kts 256°
2026-05-05 20:14 47.66838 8.84506 9890 ft 231 kts 224°
2026-05-05 20:14 47.65568 8.83023 9901 ft 232 kts 215°
2026-05-05 20:14 47.64228 8.81725 9739 ft 228 kts 214°
2026-05-05 20:15 47.62890 8.80472 9436 ft 227 kts 214°
2026-05-05 20:15 47.61565 8.79248 9111 ft 226 kts 213°
2026-05-05 20:15 47.60066 8.78553 8770 ft 232 kts 185°
2026-05-05 20:15 47.58485 8.79181 8433 ft 244 kts 154°
2026-05-05 20:16 47.57292 8.81027 8098 ft 257 kts 123°
2026-05-05 20:16 47.56517 8.83424 7738 ft 256 kts 125°
2026-05-05 20:16 47.55473 8.85529 7374 ft 253 kts 133°
2026-05-05 20:16 47.54361 8.87547 7005 ft 253 kts 134°
2026-05-05 20:17 47.53237 8.89549 6640 ft 252 kts 136°
2026-05-05 20:17 47.51843 8.90975 6270 ft 240 kts 167°
2026-05-05 20:17 47.50229 8.91319 5892 ft 233 kts 182°
2026-05-05 20:17 47.48605 8.91397 5505 ft 234 kts 184°
2026-05-05 20:18 47.46980 8.91451 5117 ft 232 kts 184°
2026-05-05 20:18 47.45427 8.91519 4990 ft 215 kts 183°
2026-05-05 20:18 47.44094 8.91161 5119 ft 174 kts 217°
2026-05-05 20:18 47.43285 8.89777 5206 ft 182 kts 250°
2026-05-05 20:19 47.43021 8.87968 5142 ft 179 kts 262°
2026-05-05 20:19 47.43011 8.86135 4966 ft 180 kts 282°
2026-05-05 20:19 47.43400 8.84388 4816 ft 178 kts 288°
2026-05-05 20:19 47.43782 8.82650 4692 ft 178 kts 282°
2026-05-05 20:20 47.44008 8.80855 4540 ft 177 kts 276°
2026-05-05 20:20 47.44169 8.79061 4466 ft 176 kts 273°
2026-05-05 20:20 47.44217 8.77249 4368 ft 177 kts 272°
2026-05-05 20:20 47.44296 8.75447 4255 ft 175 kts 273°
2026-05-05 20:21 47.44429 8.73648 3978 ft 177 kts 274°
2026-05-05 20:21 47.44578 8.71842 3736 ft 177 kts 274°
2026-05-05 20:21 47.44718 8.70021 3474 ft 179 kts 272°
2026-05-05 20:21 47.44843 8.68182 3215 ft 180 kts 274°
2026-05-05 20:22 47.44982 8.66358 2962 ft 178 kts 273°
2026-05-05 20:22 47.45108 8.64562 2636 ft 174 kts 274°
2026-05-05 20:22 47.45177 8.63391 2395 ft 173 kts 272°
2026-05-05 20:22 47.45278 8.61639 2112 ft 167 kts 278°
2026-05-05 20:23 47.45443 8.59995 1926 ft 157 kts 276°
2026-05-05 20:23 47.45555 8.58456 1711 ft 145 kts 275°
2026-05-05 20:23 47.45660 8.57010 1441 ft 137 kts 275°
2026-05-05 20:23 47.45740 8.55895 1399 ft 52 kts 276°
2026-05-05 20:24 47.45767 8.55494 1395 ft 47 kts 276°
2026-05-05 20:24 47.45729 8.55288 1395 ft 14 kts 167°
2026-05-05 20:24 47.45709 8.55298 1400 ft 0 kts 161°
2026-05-05 20:25 47.45706 8.55300 1399 ft 2 kts 161°
2026-05-05 20:25 47.45702 8.55302 1396 ft 0 kts 162°
2026-05-05 20:26 47.45687 8.55309 1404 ft 2 kts 161°
2026-05-05 20:26 47.45674 8.55316 1397 ft 4 kts 161°
2026-05-05 20:26 47.45612 8.55347 1399 ft 15 kts 156°
2026-05-05 20:26 47.45489 8.55432 1400 ft 25 kts 155°
2026-05-05 20:27 47.45315 8.55552 1400 ft 24 kts 155°
2026-05-05 20:27 47.45267 8.55703 1397 ft 13 kts 94°
2026-05-05 20:27 47.45274 8.55803 1404 ft 9 kts 36°
2026-05-05 20:27 47.45337 8.55807 1397 ft 0 kts